Regional Weather Roundup
Issued by NWS Newport/Morehead, NC

Current Version | Previous Version | Text Only | Print | Product List | Glossary On
Versions: 1 2 3 4 5 6 7 8 9 10 11 12 13 14 15 16 17 18 19 20 21 22 23 24 25 26 27 28 29 30 31 32 33 34 35 36 37 38 39 40 41 42 43 44 45 46 47 48 49 50
424
ASUS42 KMHX 250725
RWRMHX
WEATHER ROUNDUP FOR EASTERN NORTH CAROLINA
NATIONAL WEATHER SERVICE NEWPORT/MOREHEAD CITY NC
300 AM EDT SUN SEP 25 2016

NOTE: "FAIR" INDICATES FEW OR NO CLOUDS BELOW 12,000 FEET
WITH NO SIGNIFICANT WEATHER AND/OR OBSTRUCTIONS TO VISIBILITY

NCZ015>017-031-032-045>047-102-103-250800-
NORTH COAST

CITY           SKY/WX    TMP DP  RH WIND       PRES   REMARKS
EDENTON        CLOUDY    73  72  98 NE3       30.09F
ELIZABETH CITY CLOUDY    71  66  84 NE7       30.08F
KITTY HAWK     NOT AVBL
MANTEO         MOCLDY    72  65  80 NE12      30.08S

$$

NCZ045>047-081-094-103-104-250800-
CENTRAL COAST

CITY           SKY/WX    TMP DP  RH WIND       PRES   REMARKS
FRISCO         PTCLDY    74  68  81 NE7       30.06S

$$

NCZ095-097-098-100-101-250800-
SOUTHERN COAST

CITY           SKY/WX    TMP DP  RH WIND       PRES   REMARKS
BEAUFORT       MOCLDY    75  71  87 NE6       30.05S
CEDAR ISLAND   NOT AVBL
JACKSONVILLE   CLEAR     74  70  87 E5        30.05S
PINEY ISLAND   CLOUDY   N/A N/A N/A NE12      30.06S
WILMINGTON     CLEAR     69  68  96 CALM      30.04S


$$

NCZ011>013-027>030-043-044-078>080-089-090>093-098-250800-
COASTAL PLAIN

CITY           SKY/WX    TMP DP  RH WIND       PRES   REMARKS
AHOSKIE        LGT RAIN  69  67  96 NE3       30.11S
CLINTON        PTCLDY    71  71 100 CALM      30.07R
ELIZABETHTOWN  CLEAR     71  71 100 CALM      30.04S
GOLDSBORO      MOCLDY    73  73 100 NE8       30.06S
GREENVILLE     CLOUDY    72  72 100 NE3       30.10S
HAVELOCK       PTCLDY    75  72  90 NE8       30.07S
KENANSVILLE    CLEAR     70  68  94 CALM      30.07S FOG
KINSTON        CLOUDY    73  71  93 NE5       30.08S
NEW BERN       CLOUDY    73  70  90 NE7       30.08S
RICHLANDS      CLEAR     69  68  96 NE3       30.07R FOG
ROCKY MOUNT    CLOUDY    71  70  96 NE5       30.10S
WASHINGTON     CLOUDY    71  69  93 NE6       30.08F
WHITEVILLE     NOT AVBL

$$

AMZ130-135-150-152-154-156-158-170-250-252-270-ANZ085-086-088-633-658-670-250800-
MARINE OBSERVATIONS

STATION/POSITION TIME  TEMP    WIND        PRES    WAVE   SWELL
                       AIR SEA DIR/SP/G            HT/PER HT/PER
                 (UTC) (F)     (DEG/KT/KT) (MB)    (FT/S) (FT/S)
CHESAPEAKE LIGHT NOT AVBL
64 E VA BEACH    0650   72 74   30/ 17/ 21 1017.7    6/ 7   3/10
DUCK             0654   73 78   30/ 15/ 17 1018.0
2 E DUCK         0611      77                N/A     5/10   2/11
OREGON INLET     0654   73 78   20/ 11/ 15 1018.2
13E OREGON INLT  0630      77                N/A     6/11   5/11
HATTERAS CG      0654   75 82   40/ 11/ 13 1017.5
DIAMOND BUOY     0650   77 85   30/ 14/ 17 1017.1    6/11   5/11
CAPE LOOKOUT     0700   77      60/ 12/ 14 1017.3
BEAUFORT LAB     0654   75 80   40/  3/  5 1017.1
30 SE NEW RVR IN 0708   79 82   70/ 14/ 17 1016.9
30 SE NEW RVR IN 0625      82                N/A     3/12   2/12
27 SE WRIGHTSVLE 0708   81 81   90/  8/ 12 1017.0
5 SE WRIGHTSVLE  0708   81 81   90/  8/ 10 1018.0
225 S CAPE HAT   0650   81 84   40/  4/  6 1015.4    4/11   3/11
41 SE CHARLESTON 0650   81 82   50/ 10/ 12 1015.6    4/11   3/11

$$




USA.gov is the U.S. government's official web portal to all federal, state and local government web resources and services.